STARLINK-32769, 62602

Orbit data source: Space-Track

STARLINK-32769, 62602 is a payload satellite owned by SpaceX/Seattle (US) in LEO that was launched on Mon, 13 Jan 2025 UTC via an FALCON 9 launch vehicle from the Air Force Eastern Test Range (AFETR). Payload-class satellites include a variety of spacecraft equipped with specific instruments for various scientific and technological missions. These include communications satellites like Starlink; space stations such as the ISS; scientific satellites like the Hubble; Earth observation satellites from companies like Planet Labs, Umbra, and HawkEye 360; GPS; miniature CubeSats for education and research; and military/defense satellites.

Loading next visibility...
Identifier
62602, 2025-008R
Orbit
LEO
Country
Flag of USUS
Related business
Manufacturer
SpaceX/Seattle
Mission
Operational Commercial Communications
Bus & Motor
STARLINK V2M, Unknown motor
Mass
730 kg wet, ~700 kg dry
Launch date (UTC)
2025-01-13 (11 months ago)
Launch vehicle
FALCON 9
Launch site
Air Force Eastern Test Range (AFETR)
Object type
Payload
Rocket body
Debris
Shape & HBR
Box + 2 Pan, 17.7 m
Radar Cross Section
33.884 m², Large (>1 m²)

Expand to show TLE details & history
Last TLE update: 12 hours ago

TLE from 12 hours ago
0 STARLINK-32769
1 62602U 25008R   25340.56719444  .00043145  00000-0  15666-2 0  9998
2 62602  43.0009  83.7253 0001073 260.6782  99.3948 15.27614122 51384
Epoch: 2025-12-06T13:36Z
TLE epoch observation values (Epoch: 2025-12-06T13:36:45.599Z)
Latitude
-0.00005°
Longitude
163.94217°
Altitude
482.843 km
Speed
7.626 km/s
True Right ascension
05h 34m 54s
True Declination
0° 00' 00"
Sunlit
Object was in full shadow at epoch
Visualization orbit readout
Latitude
Unknown
Longitude
Unknown
Altitude
Unknown
Speed
Unknown
Apparent Right ascension
Unknown
Apparent Declination
Unknown
Sunlit
N/A
Visualization observer readout
Local Sidereal Time
00:05:51
Azimuth
Unknown
Elevation
Unknown
Doppler factor
Unknown
Orbital elements
Apogee altitude
485.628 km
Perigee altitude
484.156 km
Semi-major axis
6,863.029 km
Eccentricity
0.00011
Inclination
43.0009°
RAAN
83.7253°
Arg. of periapsis
260.6782°
True anomaly
99.40693°
Mean anomaly
99.3948°
Eccentric anomaly
99.40087°
Mean motion
3.81742 °/min
Orbital period
94.3 mins
BSTAR
0.0015666
Loading maneuver chart data...
Computing Atmospheric mass density...
Loading historical data...
Loading historical data...
Loading historical data...
Loading historical data...
Loading historical data...
Loading historical data...
Loading historical data...

Documentation

Showing up to 5 results
|